Location: Newark
(31.5350°N, 35.0986°E)
Time: 23:36:42
(UTC+00:00)

Vanguard 1 - Pass Details

Date: 25 September 2019
Orbit: 653 x 3830 km, 34.2° (Epoch: 20 October)

Event Time Altitude Azimuth Distance (km) Brightness Sun altitude
Rises 19:02:14 0° 199° (SSW) 5,985 14.0 -43.4°
Enters shadow 19:04:46 - 193° (SSW) 5,603 13.7 -43.8°
Reaches altitude 10° 19:06:22 10° 189° (S) 5,394 - -44.1°
Maximum altitude 19:21:10 33° 132° (SE) 4,822 - -46.7°
Drops below altitude 10° 19:40:01 10° 79° (E) 6,927 - -49.7°
Exits shadow 19:42:15 - 76° (ENE) 7,258 14.2 -50.0°
Sets 19:46:10 0° 71° (ENE) 7,853 14.5 -50.6°
